Weather History for Jacksonville NAS, FL

Change the Weather History Date:

Saturday, March 16, 2013

  Actual Average Record
Temperature  
Mean Temperature 64 °F -  
Max Temperature 80 °F 72 °F 87 °F (2002)
Min Temperature 48 °F 54 °F 37 °F (2005)
Degree Days  
Heating Degree Days 2    
Growing Degree Days 14 (Base 50)    
Moisture  
Dew Point 44 °F    
Average Humidity 53    
Maximum Humidity 86    
Minimum Humidity 27    
Precipitation  
Precipitation 0.00 in - - ()
Sea Level Pressure  
Sea Level Pressure 30.09 in    
Wind  
Wind Speed 9 mph (WSW)    
Max Wind Speed 20 mph    
Max Gust Speed 24 mph    
Visibility 10 miles    
Events      
Averages and records for this station are not official NWS values.
T = Trace of Precipitation, MM = Missing Value Source: NWS Daily Summary

Daily Weather History Graph

Daily Weather History Graph

Search for Another Location

Airport:

Trip Planner

Search our weather history database for the weather conditions in past years. The results will help you decide how hot, cold, wet, or windy it might be!

Date:

Astronomy

Mar. 16, 2013 Rise Set
Actual Time 7:35 AM EDT 7:35 PM EDT
Civil Twilight 7:11 AM EDT 7:59 PM EDT
Nautical Twilight 6:43 AM EDT 8:27 PM EDT
Astronomical Twilight 6:15 AM EDT 8:55 PM EDT
Moon 10:25 AM EDT (3/16) No Moon Set
Length of Visible Light 12h 48m
Length of Day
12h 00m
Waxing Crescent, 23% of the Moon is Illuminated
Mar 16
Waxing Crescent
Mar 19
First Quarter
Mar 27
Full
Apr 3
Last Quarter
Apr 10
New

Hourly Weather History & Observations

Time (EDT) Temp. Dew Point Humidity Pressure Visibility Wind Dir Wind Speed Gust Speed Precip Events Conditions
12:53 AM 55.0 °F 37.9 °F 53% 30.17 in 10.0 mi WSW 8.1 mph - N/A   Clear
1:53 AM 52.0 °F 39.9 °F 63% 30.15 in 10.0 mi West 6.9 mph - N/A   Clear
2:53 AM 51.1 °F 42.1 °F 71% 30.13 in 10.0 mi West 6.9 mph - N/A   Clear
3:53 AM 51.1 °F 44.1 °F 77% 30.13 in 10.0 mi West 5.8 mph - N/A   Clear
4:53 AM 50.0 °F 44.1 °F 80% 30.12 in 10.0 mi WSW 6.9 mph - N/A   Clear
5:53 AM 50.0 °F 44.1 °F 80% 30.12 in 10.0 mi SW 4.6 mph - N/A   Clear
6:53 AM 48.9 °F 44.1 °F 83% 30.12 in 10.0 mi Calm Calm - N/A   Clear
7:53 AM 48.9 °F 45.0 °F 86% 30.14 in 10.0 mi Calm Calm - N/A   Partly Cloudy
8:53 AM 51.1 °F 46.0 °F 83% 30.15 in 10.0 mi SW 4.6 mph - N/A   Partly Cloudy
9:53 AM 57.0 °F 48.0 °F 72% 30.16 in 10.0 mi WSW 5.8 mph - N/A   Partly Cloudy
10:53 AM 65.8 °F 46.9 °F 50% 30.15 in 10.0 mi WSW 16.1 mph - N/A   Partly Cloudy
11:53 AM 69.1 °F 46.0 °F 44% 30.14 in 10.0 mi West 15.0 mph 20.7 mph N/A   Partly Cloudy
12:53 PM 71.1 °F 46.9 °F 42% 30.11 in 10.0 mi WSW 10.4 mph - N/A   Clear
1:53 PM 75.0 °F 45.0 °F 34% 30.08 in 10.0 mi WSW 10.4 mph 19.6 mph N/A   Clear
2:53 PM 77.0 °F 45.0 °F 32% 30.05 in 10.0 mi WSW 15.0 mph - N/A   Clear
3:53 PM 79.0 °F 43.0 °F 28% 30.02 in 10.0 mi WSW 17.3 mph 21.9 mph N/A   Partly Cloudy
4:53 PM 79.0 °F 43.0 °F 28% 30.01 in 10.0 mi WSW 13.8 mph 24.2 mph N/A   Partly Cloudy
5:53 PM 79.0 °F 42.1 °F 27% 30.00 in 10.0 mi WSW 19.6 mph - N/A   Scattered Clouds
6:53 PM 77.0 °F 43.0 °F 30% 30.00 in 10.0 mi WSW 17.3 mph - N/A   Clear
7:53 PM 72.0 °F 45.0 °F 38% 30.03 in 10.0 mi WSW 10.4 mph - N/A   Clear
8:53 PM 70.0 °F 43.0 °F 38% 30.05 in 10.0 mi SW 10.4 mph - N/A   Clear
9:53 PM 68.0 °F 42.1 °F 39% 30.06 in 10.0 mi SW 10.4 mph - N/A   Clear
10:53 PM 64.9 °F 43.0 °F 45% 30.08 in 10.0 mi SW 10.4 mph - N/A   Clear
11:53 PM 61.0 °F 42.1 °F 50% 30.08 in 10.0 mi WSW 9.2 mph - N/A   Clear